Time,TemperatureF,DewpointF,PressureIn,WindDirection,WindDirectionDegrees,WindSpeedMPH,WindSpeedGustMPH,Humidity,HourlyPrecipIn,Conditions,Clouds,dailyrainin,SoftwareType,DateUTC
2014-10-20 00:00:00,51.6,44.2,29.84,West,264,8.0,14.0,76,0.00,,,0.00,meteohub,2014-10-20 05:00:00,
2014-10-20 00:05:00,51.6,44.2,29.84,WSW,244,4.0,13.0,76,0.00,,,0.00,meteohub,2014-10-20 05:05:00,
2014-10-20 00:10:00,51.6,44.2,29.84,SW,218,1.0,14.0,76,0.00,,,0.00,meteohub,2014-10-20 05:10:00,
2014-10-20 00:15:00,51.6,44.2,29.84,SSW,198,2.0,14.0,76,0.00,,,0.00,meteohub,2014-10-20 05:15:00,
2014-10-20 00:20:00,51.4,44.1,29.84,WSW,250,0.0,14.0,76,0.00,,,0.00,meteohub,2014-10-20 05:20:00,
2014-10-20 00:25:00,51.4,44.1,29.83,WSW,239,11.0,12.0,76,0.00,,,0.00,meteohub,2014-10-20 05:25:00,
2014-10-20 00:30:00,51.4,44.1,29.83,SSW,194,4.0,11.0,76,0.00,,,0.00,meteohub,2014-10-20 05:30:00,
2014-10-20 00:36:00,51.4,44.1,29.83,SW,234,0.0,11.0,76,0.00,,,0.00,meteohub,2014-10-20 05:36:00,
2014-10-20 00:41:00,51.3,43.9,29.83,WSW,253,2.0,11.0,76,0.00,,,0.00,meteohub,2014-10-20 05:41:00,
2014-10-20 00:46:00,51.3,43.9,29.83,WSW,245,0.0,10.0,76,0.00,,,0.00,meteohub,2014-10-20 05:46:00,
2014-10-20 00:51:00,51.3,44.2,29.83,WSW,249,11.0,13.0,77,0.00,,,0.00,meteohub,2014-10-20 05:51:00,
2014-10-20 00:56:00,51.3,44.2,29.83,WSW,249,4.0,13.0,77,0.00,,,0.00,meteohub,2014-10-20 05:56:00,
2014-10-20 01:01:00,51.3,44.2,29.83,WSW,248,9.0,13.0,77,0.00,,,0.00,meteohub,2014-10-20 06:01:00,
2014-10-20 01:06:00,51.3,44.2,29.83,WSW,247,4.0,15.0,77,0.00,,,0.00,meteohub,2014-10-20 06:06:00,
2014-10-20 01:11:00,51.3,44.2,29.83,WSW,253,7.0,15.0,77,0.00,,,0.00,meteohub,2014-10-20 06:11:00,
2014-10-20 01:16:00,51.3,44.2,29.83,WSW,241,3.0,12.0,77,0.00,,,0.00,meteohub,2014-10-20 06:16:00,
2014-10-20 01:21:00,51.3,44.2,29.83,WSW,247,4.0,11.0,77,0.00,,,0.00,meteohub,2014-10-20 06:21:00,
2014-10-20 01:26:00,51.3,44.2,29.83,WSW,247,4.0,12.0,77,0.00,,,0.00,meteohub,2014-10-20 06:26:00,
2014-10-20 01:32:00,51.3,44.2,29.83,WSW,243,3.0,12.0,77,0.00,,,0.00,meteohub,2014-10-20 06:32:00,
2014-10-20 01:37:00,51.3,44.2,29.83,WSW,237,7.0,12.0,77,0.00,,,0.00,meteohub,2014-10-20 06:37:00,
2014-10-20 01:42:00,51.3,44.2,29.83,WSW,244,9.0,12.0,77,0.00,,,0.00,meteohub,2014-10-20 06:42:00,
2014-10-20 01:47:00,51.3,44.2,29.83,WSW,243,0.0,14.0,77,0.00,,,0.00,meteohub,2014-10-20 06:47:00,
2014-10-20 01:52:00,51.3,44.6,29.83,WSW,245,4.0,14.0,78,0.00,,,0.00,meteohub,2014-10-20 06:52:00,
2014-10-20 01:57:00,51.1,44.4,29.82,WSW,243,0.0,14.0,78,0.00,,,0.00,meteohub,2014-10-20 06:57:00,
2014-10-20 02:02:00,50.9,44.2,29.82,WSW,239,1.0,13.0,78,0.00,,,0.00,meteohub,2014-10-20 07:02:00,
2014-10-20 02:07:00,50.7,44.1,29.82,WSW,238,0.0,13.0,78,0.00,,,0.00,meteohub,2014-10-20 07:07:00,
2014-10-20 02:12:00,50.5,44.2,29.82,WSW,242,0.0,13.0,79,0.00,,,0.00,meteohub,2014-10-20 07:12:00,
2014-10-20 02:17:00,50.5,44.2,29.82,WSW,243,0.0,8.0,79,0.00,,,0.00,meteohub,2014-10-20 07:17:00,
2014-10-20 02:22:00,50.5,44.2,29.82,WSW,243,0.0,5.0,79,0.00,,,0.00,meteohub,2014-10-20 07:22:00,
2014-10-20 02:27:00,50.5,44.2,29.83,WSW,241,0.0,5.0,79,0.00,,,0.00,meteohub,2014-10-20 07:27:00,
2014-10-20 02:32:00,50.4,44.1,29.83,WSW,248,0.0,5.0,79,0.00,,,0.00,meteohub,2014-10-20 07:32:00,
2014-10-20 02:37:00,50.4,44.4,29.82,WSW,249,0.0,5.0,80,0.00,,,0.00,meteohub,2014-10-20 07:37:00,
2014-10-20 02:42:00,50.2,44.2,29.82,WSW,244,0.0,4.0,80,0.00,,,0.00,meteohub,2014-10-20 07:42:00,
2014-10-20 02:47:00,50.0,44.1,29.82,West,261,0.0,4.0,80,0.00,,,0.00,meteohub,2014-10-20 07:47:00,
2014-10-20 02:52:00,49.8,44.2,29.82,WSW,238,5.0,5.0,81,0.00,,,0.00,meteohub,2014-10-20 07:52:00,
2014-10-20 02:57:00,49.8,44.2,29.82,WSW,245,0.0,5.0,81,0.00,,,0.00,meteohub,2014-10-20 07:57:00,
2014-10-20 03:02:00,49.6,44.1,29.82,WSW,237,0.0,5.0,81,0.00,,,0.00,meteohub,2014-10-20 08:02:00,
2014-10-20 03:07:00,49.6,44.1,29.82,WSW,241,0.0,5.0,81,0.00,,,0.00,meteohub,2014-10-20 08:07:00,
2014-10-20 03:12:00,49.6,44.4,29.82,WSW,238,0.0,3.0,82,0.00,,,0.00,meteohub,2014-10-20 08:12:00,
2014-10-20 03:17:00,49.5,44.2,29.82,SW,236,0.0,3.0,82,0.00,,,0.00,meteohub,2014-10-20 08:17:00,
2014-10-20 03:22:00,49.5,44.2,29.82,SW,236,0.0,2.0,82,0.00,,,0.00,meteohub,2014-10-20 08:22:00,
2014-10-20 03:27:00,49.5,44.2,29.82,WSW,245,0.0,2.0,82,0.00,,,0.00,meteohub,2014-10-20 08:27:00,
2014-10-20 03:32:00,49.5,44.2,29.82,WSW,245,0.0,3.0,82,0.00,,,0.00,meteohub,2014-10-20 08:32:00,
2014-10-20 03:37:00,49.3,44.1,29.82,WSW,246,0.0,3.0,82,0.00,,,0.00,meteohub,2014-10-20 08:37:00,
2014-10-20 03:42:00,49.5,44.6,29.81,WSW,246,0.0,1.0,83,0.00,,,0.00,meteohub,2014-10-20 08:42:00,
2014-10-20 03:47:00,49.3,44.4,29.81,WSW,247,0.0,1.0,83,0.00,,,0.00,meteohub,2014-10-20 08:47:00,
2014-10-20 03:52:00,49.3,44.4,29.82,WSW,247,0.0,1.0,83,0.00,,,0.00,meteohub,2014-10-20 08:52:00,
2014-10-20 03:57:00,49.3,44.4,29.82,WSW,256,0.0,0.0,83,0.00,,,0.00,meteohub,2014-10-20 08:57:00,
2014-10-20 04:02:00,49.5,44.6,29.82,West,276,0.0,1.0,83,0.00,,,0.00,meteohub,2014-10-20 09:02:00,
2014-10-20 04:07:00,49.5,44.6,29.82,West,278,0.0,5.0,83,0.00,,,0.00,meteohub,2014-10-20 09:07:00,
2014-10-20 04:12:00,49.5,44.6,29.82,West,278,0.0,5.0,83,0.00,,,0.00,meteohub,2014-10-20 09:12:00,
2014-10-20 04:17:00,49.3,44.4,29.82,West,278,0.0,2.0,83,0.00,,,0.00,meteohub,2014-10-20 09:17:00,
2014-10-20 04:22:00,49.3,44.4,29.82,West,279,0.0,3.0,83,0.00,,,0.00,meteohub,2014-10-20 09:22:00,